Estherville, IA

8:16 AM CDT on April 30, 2017 (GMT -0500)
Estherville Municipal

Weather History for KEST - September, 2013

Change the Weather History Date:

Wednesday, September 25, 2013

  Actual Average Record
Temperature  
Mean Temperature 60 °F 57 °F  
Max Temperature 77 °F 70 °F 93 °F (1956)
Min Temperature 42 °F 44 °F 30 °F (2000)
Degree Days  
Heating Degree Days 5 9  
Month to date heating degree days 90 124  
Since 1 July heating degree days 135 156  
Cooling Degree Days 0 1  
Month to date cooling degree days 98 45  
Year to date cooling degree days 692 585  
Growing Degree Days 10 (Base 50)    
Moisture  
Dew Point 48 °F    
Average Humidity 70    
Maximum Humidity 100    
Minimum Humidity 39    
Precipitation  
Precipitation 0.00 in 0.12 in 2.50 in (2005)
Month to date precipitation 0.44 2.79  
Sea Level Pressure  
Sea Level Pressure 29.92 in    
Wind  
Wind Speed 8 mph (SSE)    
Max Wind Speed 20 mph    
Max Gust Speed 25 mph    
Visibility 5 miles    
Events Fog    
T = Trace of Precipitation, MM = Missing Value Source: NWS Daily Summary

Daily Weather History Graph

Daily Weather History Graph

Search for Another Location

Airport or City:

Trip Planner

Search our weather history database for the weather conditions in past years. The results will help you decide how hot, cold, wet, or windy it might be!

Date:

Astronomy

Sep. 25, 2013 Rise Set
Actual Time 7:09 AM CDT 7:10 PM CDT
Civil Twilight 6:41 AM CDT 7:38 PM CDT
Nautical Twilight 6:08 AM CDT 8:12 PM CDT
Astronomical Twilight 5:34 AM CDT 8:45 PM CDT
Moon 11:08 PM CDT (9/25) 1:25 PM CDT (9/25)
Length of Visible Light 12h 57m
Length of Day
12h 00m
Waning Gibbous, 64% of the Moon is Illuminated
Sep 25
Waning Gibbous
Sep 26
Last Quarter
Oct 4
New
Oct 11
First Quarter
Oct 18
Full

Hourly Weather History & Observations

Time (CDT) Temp. Dew Point Humidity Pressure Visibility Wind Dir Wind Speed Gust Speed Precip Events Conditions
12:52 AM 50.0 °F 48.9 °F 96% 29.94 in 8.0 mi Calm Calm - N/A   Clear
1:52 AM 50.0 °F 48.9 °F 96% 29.94 in 8.0 mi Calm Calm - N/A   Clear
2:52 AM 48.0 °F 46.9 °F 96% 29.94 in 6.0 mi South 3.5 mph - N/A   Clear
3:52 AM 46.9 °F 46.9 °F 100% 29.95 in 6.0 mi Calm Calm - N/A   Clear
4:49 AM 46.4 °F 46.4 °F 100% 29.95 in 1.0 mi Calm Calm - N/A   Clear
4:52 AM 46.0 °F 46.0 °F 100% 29.94 in 0.2 mi Calm Calm - N/A Fog Fog
5:11 AM 44.6 °F 44.6 °F 100% 29.94 in 1.5 mi Calm Calm - N/A   Clear
5:13 AM 44.6 °F 44.6 °F 100% 29.94 in 3.0 mi Calm Calm - N/A   Clear
5:33 AM 44.6 °F 44.6 °F 100% 29.94 in 1.5 mi Calm Calm - N/A   Clear
5:40 AM 44.6 °F 44.6 °F 100% 29.94 in 0.2 mi Calm Calm - N/A Fog Fog
5:52 AM 45.0 °F 44.1 °F 97% 29.94 in 0.8 mi Calm Calm - N/A   Clear
6:09 AM 42.8 °F 42.8 °F 100% 29.94 in 1.2 mi Calm Calm - N/A   Partly Cloudy
6:19 AM 42.8 °F 42.8 °F 100% 29.94 in 0.2 mi Calm Calm - N/A Fog Fog
6:32 AM 42.8 °F 42.8 °F 100% 29.94 in 1.2 mi Calm Calm - N/A   Partly Cloudy
6:37 AM 44.6 °F 42.8 °F 93% 29.94 in 0.8 mi Calm Calm - N/A   Mist
6:47 AM 44.6 °F 44.6 °F 100% 29.94 in 1.0 mi Calm Calm - N/A   Clear
6:49 AM 44.6 °F 44.6 °F 100% 29.94 in 2.0 mi Calm Calm - N/A   Clear
6:52 AM 44.1 °F 44.1 °F 100% 29.94 in 1.2 mi Calm Calm - N/A   Partly Cloudy
6:54 AM 44.6 °F 44.6 °F 100% 29.94 in 0.8 mi Calm Calm - N/A   Mist
7:26 AM 42.8 °F 42.8 °F 100% 29.95 in 1.0 mi Calm Calm - N/A   Clear
7:29 AM 42.8 °F 42.8 °F 100% 29.95 in 2.0 mi Calm Calm - N/A   Clear
7:41 AM 44.6 °F 44.6 °F 100% 29.95 in 3.0 mi Calm Calm - N/A   Clear
7:52 AM 45.0 °F 45.0 °F 100% 29.97 in 3.0 mi Calm Calm - N/A   Clear
8:08 AM 48.2 °F 48.2 °F 100% 29.96 in 2.5 mi Calm Calm - N/A   Clear
8:32 AM 51.8 °F 51.8 °F 100% 29.95 in 3.0 mi Calm Calm - N/A   Clear
8:52 AM 54.0 °F 52.0 °F 93% 29.97 in 6.0 mi SSE 4.6 mph - N/A   Clear
9:52 AM 61.0 °F 52.0 °F 72% 29.96 in 9.0 mi SSE 10.4 mph - N/A   Clear
10:52 AM 68.0 °F 52.0 °F 56% 29.95 in 10.0 mi SSE 10.4 mph - N/A   Clear
11:52 AM 71.1 °F 51.1 °F 49% 29.94 in 10.0 mi SE 15.0 mph 21.9 mph N/A   Clear
12:52 PM 73.9 °F 52.0 °F 46% 29.92 in 10.0 mi SSE 13.8 mph 23.0 mph N/A   Clear
1:52 PM 75.0 °F 52.0 °F 44% 29.89 in 10.0 mi SE 19.6 mph 24.2 mph N/A   Clear
2:52 PM 75.9 °F 52.0 °F 43% 29.86 in 10.0 mi South 15.0 mph 21.9 mph N/A   Clear
3:52 PM 77.0 °F 50.0 °F 39% 29.85 in 10.0 mi South 13.8 mph 20.7 mph N/A   Clear
4:52 PM 75.9 °F 50.0 °F 40% 29.83 in 10.0 mi SSE 15.0 mph 21.9 mph N/A   Clear
5:52 PM 75.0 °F 51.1 °F 43% 29.82 in 10.0 mi SE 15.0 mph 21.9 mph N/A   Clear
6:52 PM 71.1 °F 52.0 °F 51% 29.82 in 10.0 mi SE 6.9 mph - N/A   Clear
7:52 PM 64.9 °F 54.0 °F 68% 29.82 in 10.0 mi SE 8.1 mph - N/A   Clear
8:52 PM 64.0 °F 54.0 °F 70% 29.82 in 10.0 mi SE 10.4 mph - N/A   Clear
9:52 PM 63.0 °F 54.0 °F 72% 29.83 in 10.0 mi SE 10.4 mph - N/A   Clear
10:52 PM 61.0 °F 54.0 °F 78% 29.84 in 10.0 mi SE 10.4 mph - N/A   Clear
11:52 PM 60.1 °F 54.0 °F 80% 29.85 in 10.0 mi SE 8.1 mph - N/A   Clear